| time (UTC) | temp C | wind direction | speed KPH | gust KPH | rain 1hr cm | rain 24hr cm | rain mn cm | humidity % | barometer mb |
| 20260831164802 | 30 | 279 | 1.6 | 1.6 | 0.00 | 0.00 | 0.00 | 76 | 1018.2 |
| 20260831164258 | 30 | 237 | 1.6 | 3.2 | 0.00 | 0.00 | 0.00 | 74 | 1018.5 |
| 20260831163753 | 30 | 124 | 0.0 | 0.0 | 0.00 | 0.00 | 0.00 | 77 | 1018.5 |
| 20260831163249 | 30 | 259 | 3.2 | 3.2 | 0.00 | 0.00 | 0.00 | 76 | 1018.2 |
| 20260831162747 | 30 | 65 | 1.6 | 3.2 | 0.00 | 0.00 | 0.00 | 77 | 1018.5 |
| 20260831162242 | 30 | 128 | 1.6 | 1.6 | 0.00 | 0.00 | 0.00 | 76 | 1018.6 |
| 20260831161736 | 29 | 152 | 1.6 | 3.2 | 0.00 | 0.00 | 0.00 | 77 | 1018.5 |
| 20260831161233 | 29 | 124 | 1.6 | 3.2 | 0.00 | 0.00 | 0.00 | 76 | 1018.6 |
| 20260831160732 | 29 | 93 | 3.2 | 3.2 | 0.00 | 0.00 | 0.00 | 77 | 1018.5 |
| 20260831160227 | 29 | 81 | 1.6 | 1.6 | 0.00 | 0.00 | 0.00 | 77 | 1018.5 |
| 20260831155727 | 30 | 92 | 1.6 | 3.2 | 0.00 | 0.00 | 0.00 | 76 | 1018.6 |
| 20260831155223 | 30 | 92 | 1.6 | 1.6 | 0.00 | 0.00 | 0.00 | 76 | 1018.5 |
| 20260831154719 | 29 | 116 | 1.6 | 1.6 | 0.00 | 0.00 | 0.00 | 78 | 1018.5 |
| 20260831154215 | 29 | 161 | 3.2 | 3.2 | 0.00 | 0.00 | 0.00 | 77 | 1018.3 |
| 20260831153713 | 29 | 99 | 3.2 | 3.2 | 0.00 | 0.00 | 0.00 | 78 | 1018.4 |
| 20260831153209 | 30 | 154 | 3.2 | 3.2 | 0.00 | 0.00 | 0.00 | 76 | 1018.4 |
| 20260831152705 | 29 | 164 | 3.2 | 3.2 | 0.00 | 0.00 | 0.00 | 77 | 1018.5 |
| 20260831152201 | 29 | 160 | 3.2 | 3.2 | 0.00 | 0.00 | 0.00 | 77 | 1018.4 |
| 20260831151700 | 29 | 129 | 0.0 | 1.6 | 0.00 | 0.00 | 0.00 | 79 | 1018.5 |
| 20260831151155 | 29 | 160 | 1.6 | 1.6 | 0.00 | 0.00 | 0.00 | 79 | 1018.5 |
| 20260831150650 | 29 | 176 | 0.0 | 1.6 | 0.00 | 0.00 | 0.00 | 80 | 1018.7 |
| 20260831150145 | 28 | 244 | 1.6 | 1.6 | 0.00 | 0.00 | 0.00 | 79 | 1018.6 |
| 20260831145644 | 28 | 138 | 3.2 | 3.2 | 0.00 | 0.00 | 0.00 | 81 | 1018.5 |
| 20260831145141 | 28 | 121 | 1.6 | 3.2 | 0.00 | 0.00 | 0.00 | 81 | 1018.7 |
| 20260831144636 | 28 | 125 | 1.6 | 3.2 | 0.00 | 0.00 | 0.00 | 81 | 1018.8 |
| 20260831144132 | 28 | 119 | 3.2 | 3.2 | 0.00 | 0.00 | 0.00 | 82 | 1018.6 |
| 20260831143631 | 28 | 74 | 1.6 | 1.6 | 0.00 | 0.00 | 0.00 | 77 | 1018.6 |
| 20260831143127 | 28 | 28 | 0.0 | 1.6 | 0.00 | 0.00 | 0.00 | 79 | 1018.4 |
| 20260831142623 | 28 | 44 | 1.6 | 1.6 | 0.00 | 0.00 | 0.00 | 78 | 1018.6 |
| 20260831142119 | 28 | 58 | 0.0 | 0.0 | 0.00 | 0.00 | 0.00 | 78 | 1018.4 |
| 20260831141617 | 28 | 21 | 0.0 | 0.0 | 0.00 | 0.00 | 0.00 | 79 | 1018.5 |
| 20260831141113 | 28 | 49 | 0.0 | 0.0 | 0.00 | 0.00 | 0.00 | 80 | 1018.4 |
| 20260831140612 | 27 | 48 | 0.0 | 0.0 | 0.00 | 0.00 | 0.00 | 81 | 1018.3 |
| 20260831140107 | 27 | 213 | 0.0 | 0.0 | 0.00 | 0.00 | 0.00 | 81 | 1018.3 |
| 20260831135604 | 27 | 88 | 0.0 | 0.0 | 0.00 | 0.00 | 0.00 | 82 | 1018.3 |
| 20260831135101 | 27 | 7 | 0.0 | 0.0 | 0.00 | 0.00 | 0.00 | 84 | 1018.1 |
| 20260831134556 | 27 | 30 | 1.6 | 1.6 | 0.00 | 0.00 | 0.00 | 82 | 1017.9 |
| 20260831134051 | 27 | 85 | 1.6 | 1.6 | 0.00 | 0.00 | 0.00 | 84 | 1018.2 |
| 20260831133550 | 26 | 1 | 0.0 | 0.0 | 0.00 | 0.00 | 0.00 | 85 | 1018.1 |
| 20260831133045 | 26 | 327 | 0.0 | 1.6 | 0.00 | 0.00 | 0.00 | 86 | 1018.1 |
| 20260831132542 | 26 | 169 | 1.6 | 1.6 | 0.00 | 0.00 | 0.00 | 86 | 1018.1 |
| 20260831132040 | 25 | 12 | 1.6 | 1.6 | 0.00 | 0.00 | 0.00 | 89 | 1018.1 |
| 20260831131541 | 25 | 134 | 1.6 | 1.6 | 0.00 | 0.00 | 0.00 | 91 | 1017.9 |
| 20260831131037 | 25 | 32 | 0.0 | 0.0 | 0.00 | 0.00 | 0.00 | 94 | 1018.0 |
| 20260831130532 | 24 | 136 | 0.0 | 0.0 | 0.00 | 0.00 | 0.00 | 95 | 1018.0 |
| 20260831130027 | 24 | 0 | 0.0 | 1.6 | 0.00 | 0.00 | 0.00 | 96 | 1017.9 |
| 20260831125520 | 23 | 353 | 0.0 | 1.6 | 0.00 | 0.00 | 0.00 | 97 | 1017.9 |
| 20260831125016 | 23 | 357 | 0.0 | 0.0 | 0.00 | 0.00 | 0.00 | 97 | 1017.7 |
| 20260831124513 | 23 | 350 | 0.0 | 0.0 | 0.00 | 0.00 | 0.00 | 97 | 1017.9 |
| 20260831124008 | 23 | 350 | 0.0 | 0.0 | 0.00 | 0.00 | 0.00 | 97 | 1018.0 |
| 20260831123507 | 23 | 345 | 0.0 | 0.0 | 0.00 | 0.00 | 0.00 | 97 | 1017.9 |
| 20260831123002 | 23 | 254 | 0.0 | 0.0 | 0.00 | 0.00 | 0.00 | 97 | 1018.0 |
| 20260831122457 | 23 | 350 | 0.0 | 0.0 | 0.00 | 0.00 | 0.00 | 97 | 1017.9 |
| 20260831121952 | 22 | 24 | 0.0 | 0.0 | 0.00 | 0.00 | 0.00 | 97 | 1018.2 |
| 20260831121447 | 22 | 13 | 0.0 | 0.0 | 0.00 | 0.00 | 0.00 | 97 | 1018.1 |
| 20260831120943 | 22 | 233 | 0.0 | 0.0 | 0.00 | 0.00 | 0.00 | 97 | 1018.1 |
| 20260831120442 | 22 | 25 | 0.0 | 0.0 | 0.00 | 0.00 | 0.00 | 97 | 1017.9 |
| 20260831115937 | 22 | 1 | 0.0 | 0.0 | 0.00 | 0.00 | 0.00 | 97 | 1017.9 |
| 20260831115433 | 22 | 0 | 0.0 | 0.0 | 0.00 | 0.00 | 0.00 | 97 | 1018.0 |
| 20260831114933 | 22 | 3 | 0.0 | 0.0 | 0.00 | 0.00 | 0.00 | 97 | 1018.0 |
| 20260831114432 | 22 | 358 | 0.0 | 0.0 | 0.00 | 0.00 | 0.00 | 97 | 1018.2 |
| 20260831113928 | 22 | 357 | 0.0 | 0.0 | 0.00 | 0.00 | 0.00 | 97 | 1018.3 |
| 20260831113427 | 22 | 343 | 0.0 | 0.0 | 0.00 | 0.00 | 0.00 | 97 | 1018.2 |
| 20260831112922 | 21 | 354 | 0.0 | 0.0 | 0.00 | 0.00 | 0.00 | 97 | 1018.1 |
| 20260831112422 | 21 | 341 | 0.0 | 0.0 | 0.00 | 0.00 | 0.00 | 97 | 1018.1 |
| 20260831111918 | 21 | 337 | 0.0 | 0.0 | 0.00 | 0.00 | 0.00 | 97 | 1018.1 |
| 20260831111414 | 21 | 348 | 0.0 | 0.0 | 0.00 | 0.00 | 0.00 | 97 | 1018.0 |
| 20260831110909 | 21 | 348 | 0.0 | 0.0 | 0.00 | 0.00 | 0.00 | 97 | 1018.0 |
| 20260831110404 | 21 | 350 | 0.0 | 0.0 | 0.00 | 0.00 | 0.00 | 97 | 1018.2 |
| 20260831105902 | 21 | 350 | 0.0 | 0.0 | 0.00 | 0.00 | 0.00 | 97 | 1017.9 |
| 20260831105358 | 21 | 329 | 0.0 | 0.0 | 0.00 | 0.00 | 0.00 | 97 | 1017.9 |
| 20260831104853 | 21 | 345 | 0.0 | 0.0 | 0.00 | 0.00 | 0.00 | 97 | 1017.8 |
| 20260831104349 | 21 | 324 | 0.0 | 0.0 | 0.00 | 0.00 | 0.00 | 97 | 1017.8 |
| 20260831103844 | 21 | 330 | 0.0 | 0.0 | 0.00 | 0.00 | 0.00 | 97 | 1018.0 |
| 20260831103340 | 21 | 339 | 0.0 | 0.0 | 0.00 | 0.00 | 0.00 | 97 | 1017.8 |
| 20260831102835 | 21 | 338 | 0.0 | 0.0 | 0.00 | 0.00 | 0.00 | 97 | 1017.7 |
| 20260831102329 | 21 | 5 | 0.0 | 0.0 | 0.00 | 0.00 | 0.00 | 97 | 1017.8 |
| 20260831101825 | 21 | 342 | 0.0 | 0.0 | 0.00 | 0.00 | 0.00 | 97 | 1017.7 |
| 20260831101320 | 21 | 349 | 0.0 | 0.0 | 0.00 | 0.00 | 0.00 | 97 | 1017.8 |
| 20260831100816 | 21 | 349 | 0.0 | 0.0 | 0.00 | 0.00 | 0.00 | 97 | 1017.7 |
| 20260831100312 | 21 | 349 | 0.0 | 0.0 | 0.00 | 0.00 | 0.00 | 97 | 1017.6 |
| 20260831095811 | 21 | 349 | 0.0 | 0.0 | 0.00 | 0.00 | 0.00 | 97 | 1017.7 |
| 20260831095306 | 21 | 349 | 0.0 | 0.0 | 0.00 | 0.00 | 0.00 | 97 | 1017.7 |
| 20260831094801 | 21 | 349 | 0.0 | 0.0 | 0.00 | 0.00 | 0.00 | 97 | 1017.6 |
| 20260831094256 | 21 | 346 | 0.0 | 0.0 | 0.00 | 0.00 | 0.00 | 97 | 1017.5 |
| 20260831093752 | 21 | 351 | 0.0 | 0.0 | 0.00 | 0.00 | 0.00 | 97 | 1017.3 |
| 20260831093252 | 21 | 356 | 0.0 | 0.0 | 0.00 | 0.00 | 0.00 | 97 | 1017.7 |
| 20260831092749 | 21 | 349 | 0.0 | 1.6 | 0.00 | 0.00 | 0.00 | 97 | 1017.6 |
| 20260831092244 | 21 | 357 | 0.0 | 1.6 | 0.00 | 0.00 | 0.00 | 97 | 1018.0 |
| 20260831091743 | 22 | 320 | 0.0 | 0.0 | 0.00 | 0.00 | 0.00 | 97 | 1017.9 |
| 20260831091240 | 22 | 334 | 0.0 | 0.0 | 0.00 | 0.00 | 0.00 | 97 | 1017.7 |
| 20260831090735 | 22 | 322 | 0.0 | 0.0 | 0.00 | 0.00 | 0.00 | 97 | 1017.8 |
| 20260831090231 | 22 | 346 | 0.0 | 0.0 | 0.00 | 0.00 | 0.00 | 97 | 1017.6 |
| 20260831085727 | 22 | 352 | 0.0 | 0.0 | 0.00 | 0.00 | 0.00 | 97 | 1017.7 |
| 20260831085221 | 22 | 339 | 1.6 | 1.6 | 0.00 | 0.00 | 0.00 | 97 | 1017.5 |
| 20260831084717 | 22 | 333 | 0.0 | 0.0 | 0.00 | 0.00 | 0.00 | 97 | 1017.5 |
| 20260831084213 | 22 | 339 | 0.0 | 0.0 | 0.00 | 0.00 | 0.00 | 97 | 1017.4 |
| 20260831083709 | 22 | 327 | 0.0 | 1.6 | 0.00 | 0.00 | 0.00 | 97 | 1017.6 |
| 20260831083204 | 22 | 327 | 0.0 | 0.0 | 0.00 | 0.00 | 0.00 | 97 | 1017.6 |
| 20260831082702 | 22 | 336 | 0.0 | 0.0 | 0.00 | 0.00 | 0.00 | 97 | 1017.5 |
| 20260831082158 | 22 | 345 | 0.0 | 0.0 | 0.00 | 0.00 | 0.00 | 97 | 1017.5 |
| 20260831081653 | 22 | 329 | 0.0 | 0.0 | 0.00 | 0.00 | 0.00 | 97 | 1017.5 |
| 20260831081149 | 22 | 322 | 0.0 | 0.0 | 0.00 | 0.00 | 0.00 | 97 | 1017.7 |
| 20260831080645 | 22 | 333 | 0.0 | 1.6 | 0.00 | 0.00 | 0.00 | 97 | 1017.6 |
| 20260831080139 | 22 | 2 | 0.0 | 0.0 | 0.00 | 0.00 | 0.00 | 97 | 1017.7 |
| 20260831075635 | 22 | 328 | 0.0 | 0.0 | 0.00 | 0.00 | 0.00 | 97 | 1017.8 |
| 20260831075130 | 22 | 352 | 0.0 | 0.0 | 0.00 | 0.00 | 0.00 | 97 | 1017.8 |
| 20260831074629 | 22 | 334 | 1.6 | 1.6 | 0.00 | 0.00 | 0.00 | 97 | 1017.7 |
| 20260831074124 | 22 | 338 | 0.0 | 0.0 | 0.00 | 0.00 | 0.00 | 97 | 1017.6 |
| 20260831073619 | 22 | 342 | 0.0 | 0.0 | 0.00 | 0.00 | 0.00 | 97 | 1017.8 |
| 20260831073118 | 22 | 349 | 0.0 | 0.0 | 0.00 | 0.00 | 0.00 | 97 | 1017.9 |
| 20260831072614 | 22 | 355 | 1.6 | 1.6 | 0.00 | 0.00 | 0.00 | 97 | 1017.7 |
| 20260831072111 | 22 | 341 | 1.6 | 1.6 | 0.00 | 0.00 | 0.00 | 96 | 1017.9 |
| 20260831071609 | 22 | 349 | 0.0 | 0.0 | 0.00 | 0.00 | 0.00 | 96 | 1017.6 |
| 20260831071104 | 23 | 343 | 0.0 | 0.0 | 0.00 | 0.00 | 0.00 | 96 | 1017.6 |
| 20260831070603 | 23 | 342 | 0.0 | 0.0 | 0.00 | 0.00 | 0.00 | 96 | 1017.8 |
| 20260831070058 | 23 | 342 | 0.0 | 0.0 | 0.00 | 0.00 | 0.00 | 96 | 1017.8 |
| 20260831065556 | 23 | 342 | 0.0 | 0.0 | 0.00 | 0.00 | 0.00 | 96 | 1017.8 |
| 20260831065050 | 23 | 342 | 0.0 | 0.0 | 0.00 | 0.00 | 0.00 | 96 | 1017.8 |
| 20260831064546 | 23 | 340 | 0.0 | 1.6 | 0.00 | 0.00 | 0.00 | 96 | 1017.7 |
| 20260831064041 | 23 | 342 | 0.0 | 0.0 | 0.00 | 0.00 | 0.00 | 96 | 1018.1 |
| 20260831063537 | 23 | 343 | 0.0 | 0.0 | 0.00 | 0.00 | 0.00 | 96 | 1017.9 |
| 20260831063031 | 23 | 349 | 0.0 | 0.0 | 0.00 | 0.00 | 0.00 | 96 | 1017.8 |
| 20260831062526 | 23 | 349 | 0.0 | 0.0 | 0.00 | 0.00 | 0.00 | 96 | 1017.8 |
| 20260831062026 | 23 | 349 | 0.0 | 0.0 | 0.00 | 0.00 | 0.00 | 96 | 1018.1 |
| 20260831061524 | 23 | 349 | 0.0 | 0.0 | 0.00 | 0.00 | 0.00 | 96 | 1018.0 |
| 20260831061020 | 23 | 351 | 0.0 | 0.0 | 0.00 | 0.00 | 0.00 | 96 | 1018.1 |
| 20260831060520 | 23 | 355 | 0.0 | 0.0 | 0.00 | 0.00 | 0.00 | 96 | 1018.2 |
| 20260831060016 | 23 | 355 | 0.0 | 0.0 | 0.00 | 0.00 | 0.00 | 96 | 1018.1 |
| 20260831055510 | 23 | 356 | 0.0 | 0.0 | 0.00 | 0.00 | 0.00 | 96 | 1018.1 |
| 20260831055006 | 23 | 2 | 0.0 | 0.0 | 0.00 | 0.00 | 0.00 | 96 | 1018.3 |
| 20260831054506 | 23 | 354 | 0.0 | 0.0 | 0.00 | 0.00 | 0.00 | 96 | 1018.2 |
| 20260831054005 | 23 | 348 | 0.0 | 0.0 | 0.00 | 0.00 | 0.00 | 96 | 1018.5 |
| 20260831053503 | 23 | 350 | 0.0 | 0.0 | 0.00 | 0.00 | 0.00 | 96 | 1018.5 |
| 20260831052958 | 23 | 350 | 0.0 | 0.0 | 0.00 | 0.00 | 0.00 | 96 | 1018.4 |
| 20260831052457 | 23 | 342 | 0.0 | 0.0 | 0.00 | 0.00 | 0.00 | 96 | 1018.8 |
| 20260831051956 | 23 | 350 | 0.0 | 0.0 | 0.00 | 0.00 | 0.00 | 96 | 1018.9 |
| 20260831051455 | 23 | 350 | 0.0 | 0.0 | 0.00 | 0.00 | 0.00 | 96 | 1018.6 |
| 20260831050954 | 23 | 350 | 0.0 | 0.0 | 0.00 | 0.00 | 0.00 | 96 | 1018.5 |
| 20260831050449 | 23 | 359 | 0.0 | 0.0 | 0.00 | 0.00 | 0.00 | 96 | 1018.6 |
| 20260831045948 | 23 | 339 | 0.0 | 0.0 | 0.00 | 0.00 | 0.00 | 96 | 1018.6 |
| 20260831045447 | 23 | 348 | 0.0 | 0.0 | 0.00 | 0.00 | 0.00 | 96 | 1018.6 |
| 20260831044942 | 23 | 353 | 0.0 | 0.0 | 0.00 | 0.00 | 0.00 | 96 | 1018.5 |
| 20260831044437 | 23 | 341 | 0.0 | 0.0 | 0.00 | 0.00 | 0.00 | 96 | 1018.6 |
| 20260831043933 | 23 | 346 | 0.0 | 0.0 | 0.00 | 0.00 | 0.00 | 96 | 1018.8 |
| 20260831043433 | 23 | 350 | 0.0 | 0.0 | 0.00 | 0.00 | 0.00 | 96 | 1018.5 |
| 20260831042928 | 23 | 355 | 0.0 | 0.0 | 0.00 | 0.00 | 0.00 | 96 | 1018.7 |
| 20260831042427 | 23 | 355 | 0.0 | 0.0 | 0.00 | 0.00 | 0.00 | 96 | 1018.6 |
| 20260831041922 | 23 | 355 | 0.0 | 0.0 | 0.00 | 0.00 | 0.00 | 96 | 1018.7 |
| 20260831041422 | 23 | 357 | 0.0 | 0.0 | 0.00 | 0.00 | 0.00 | 95 | 1018.6 |
| 20260831040917 | 23 | 352 | 0.0 | 0.0 | 0.00 | 0.00 | 0.00 | 95 | 1018.6 |
| 20260831040412 | 23 | 352 | 0.0 | 0.0 | 0.00 | 0.00 | 0.00 | 95 | 1018.6 |
| 20260831035909 | 23 | 350 | 0.0 | 0.0 | 0.00 | 0.00 | 0.00 | 95 | 1018.4 |
| 20260831035408 | 23 | 3 | 0.0 | 0.0 | 0.00 | 0.00 | 0.00 | 95 | 1018.4 |
| 20260831034903 | 23 | 10 | 0.0 | 0.0 | 0.00 | 0.00 | 0.00 | 95 | 1018.4 |
| 20260831034358 | 23 | 340 | 0.0 | 0.0 | 0.00 | 0.00 | 0.00 | 95 | 1018.7 |
| 20260831033853 | 23 | 341 | 1.6 | 1.6 | 0.00 | 0.00 | 0.00 | 95 | 1018.6 |
| 20260831033348 | 23 | 352 | 1.6 | 1.6 | 0.00 | 0.00 | 0.00 | 95 | 1018.6 |
| 20260831032844 | 23 | 346 | 0.0 | 0.0 | 0.00 | 0.00 | 0.00 | 95 | 1018.3 |
| 20260831032344 | 23 | 346 | 0.0 | 0.0 | 0.00 | 0.00 | 0.00 | 95 | 1018.4 |
| 20260831031839 | 23 | 354 | 0.0 | 0.0 | 0.00 | 0.00 | 0.00 | 95 | 1018.4 |
| 20260831031338 | 23 | 325 | 0.0 | 0.0 | 0.00 | 0.00 | 0.00 | 95 | 1018.7 |
| 20260831030834 | 23 | 337 | 0.0 | 0.0 | 0.00 | 0.00 | 0.00 | 95 | 1018.9 |
| 20260831030332 | 23 | 317 | 0.0 | 0.0 | 0.00 | 0.00 | 0.00 | 95 | 1018.6 |
| 20260831025826 | 23 | 354 | 0.0 | 0.0 | 0.00 | 0.00 | 0.00 | 95 | 1018.6 |
| 20260831025325 | 23 | 350 | 0.0 | 0.0 | 0.00 | 0.00 | 0.00 | 95 | 1018.6 |
| 20260831024821 | 23 | 293 | 0.0 | 1.6 | 0.00 | 0.00 | 0.00 | 95 | 1018.8 |
| 20260831024320 | 24 | 348 | 0.0 | 0.0 | 0.00 | 0.00 | 0.00 | 95 | 1018.6 |
| 20260831023819 | 24 | 341 | 0.0 | 0.0 | 0.00 | 0.00 | 0.00 | 95 | 1018.6 |
| 20260831023318 | 24 | 347 | 0.0 | 0.0 | 0.00 | 0.00 | 0.00 | 95 | 1018.7 |
| 20260831022814 | 24 | 345 | 0.0 | 0.0 | 0.00 | 0.00 | 0.00 | 94 | 1018.9 |
| 20260831022312 | 24 | 348 | 0.0 | 0.0 | 0.00 | 0.00 | 0.00 | 94 | 1018.7 |
| 20260831021808 | 24 | 347 | 0.0 | 0.0 | 0.00 | 0.00 | 0.00 | 94 | 1018.8 |
| 20260831021302 | 24 | 351 | 0.0 | 0.0 | 0.00 | 0.00 | 0.00 | 94 | 1018.8 |
| 20260831020758 | 24 | 354 | 0.0 | 0.0 | 0.00 | 0.00 | 0.00 | 94 | 1018.9 |
| 20260831020257 | 24 | 359 | 0.0 | 0.0 | 0.00 | 0.00 | 0.00 | 94 | 1018.8 |
| 20260831015753 | 24 | 0 | 0.0 | 0.0 | 0.00 | 0.00 | 0.00 | 94 | 1018.8 |
| 20260831015248 | 24 | 0 | 0.0 | 0.0 | 0.00 | 0.00 | 0.00 | 94 | 1018.7 |
| 20260831014743 | 24 | 0 | 0.0 | 0.0 | 0.00 | 0.00 | 0.00 | 94 | 1019.0 |
| 20260831014243 | 24 | 0 | 0.0 | 0.0 | 0.00 | 0.00 | 0.00 | 94 | 1018.7 |
| 20260831013739 | 24 | 359 | 0.0 | 0.0 | 0.00 | 0.00 | 0.00 | 93 | 1018.9 |
| 20260831013238 | 24 | 0 | 0.0 | 0.0 | 0.00 | 0.00 | 0.00 | 93 | 1018.7 |
| 20260831012733 | 24 | 0 | 0.0 | 0.0 | 0.00 | 0.00 | 0.00 | 93 | 1018.7 |
| 20260831012229 | 24 | 0 | 0.0 | 0.0 | 0.00 | 0.00 | 0.00 | 93 | 1018.9 |
| 20260831011727 | 24 | 359 | 0.0 | 0.0 | 0.00 | 0.00 | 0.00 | 93 | 1018.8 |
| 20260831011224 | 25 | 1 | 0.0 | 0.0 | 0.00 | 0.00 | 0.00 | 93 | 1018.7 |
| 20260831010719 | 25 | 0 | 0.0 | 0.0 | 0.00 | 0.00 | 0.00 | 92 | 1018.8 |
| 20260831010214 | 25 | 359 | 0.0 | 0.0 | 0.00 | 0.00 | 0.00 | 92 | 1018.6 |
| 20260831005709 | 25 | 0 | 0.0 | 0.0 | 0.00 | 0.00 | 0.00 | 92 | 1018.5 |
| 20260831005204 | 25 | 1 | 0.0 | 0.0 | 0.00 | 0.00 | 0.00 | 92 | 1018.4 |
| 20260831004659 | 25 | 0 | 0.0 | 0.0 | 0.00 | 0.00 | 0.00 | 92 | 1018.7 |
| 20260831004155 | 25 | 0 | 0.0 | 0.0 | 0.00 | 0.00 | 0.00 | 92 | 1018.5 |
| 20260831003651 | 25 | 0 | 0.0 | 0.0 | 0.00 | 0.00 | 0.00 | 92 | 1018.4 |
| 20260831003147 | 25 | 1 | 0.0 | 0.0 | 0.00 | 0.00 | 0.00 | 91 | 1018.6 |
| 20260831002645 | 25 | 0 | 0.0 | 0.0 | 0.00 | 0.00 | 0.00 | 91 | 1018.6 |
| 20260831002141 | 25 | 359 | 0.0 | 0.0 | 0.00 | 0.00 | 0.00 | 91 | 1018.6 |
| 20260831001637 | 25 | 0 | 0.0 | 0.0 | 0.00 | 0.00 | 0.00 | 90 | 1018.2 |
| 20260831001132 | 25 | 354 | 0.0 | 0.0 | 0.00 | 0.00 | 0.00 | 90 | 1018.5 |
| 20260831000629 | 25 | 306 | 0.0 | 1.6 | 0.00 | 0.00 | 0.00 | 89 | 1018.5 |
| 20260831000128 | 25 | 3 | 0.0 | 0.0 | 0.00 | 0.00 | 0.00 | 89 | 1018.3 |
| 20260830235627 | 25 | 217 | 0.0 | 0.0 | 0.00 | 0.00 | 0.00 | 89 | 1018.4 |
| 20260830235122 | 26 | 33 | 0.0 | 0.0 | 0.00 | 0.00 | 0.00 | 89 | 1018.4 |
| 20260830234617 | 26 | 137 | 0.0 | 0.0 | 0.00 | 0.00 | 0.00 | 88 | 1018.4 |
| 20260830234112 | 26 | 119 | 1.6 | 3.2 | 0.00 | 0.00 | 0.00 | 88 | 1018.4 |
| 20260830233608 | 26 | 102 | 0.0 | 0.0 | 0.00 | 0.00 | 0.00 | 88 | 1018.6 |
| 20260830233104 | 26 | 131 | 0.0 | 0.0 | 0.00 | 0.00 | 0.00 | 88 | 1018.8 |
| 20260830232559 | 26 | 121 | 0.0 | 0.0 | 0.00 | 0.00 | 0.00 | 88 | 1018.6 |
| 20260830232055 | 26 | 142 | 0.0 | 1.6 | 0.00 | 0.00 | 0.00 | 87 | 1018.7 |
| 20260830231551 | 26 | 114 | 0.0 | 0.0 | 0.00 | 0.00 | 0.00 | 87 | 1018.8 |
| 20260830231050 | 26 | 130 | 4.8 | 4.8 | 0.00 | 0.00 | 0.00 | 86 | 1018.8 |
| 20260830230545 | 26 | 184 | 4.8 | 4.8 | 0.00 | 0.00 | 0.00 | 86 | 1018.9 |
| 20260830230040 | 26 | 154 | 3.2 | 3.2 | 0.00 | 0.00 | 0.00 | 86 | 1018.8 |
| 20260830225536 | 26 | 137 | 1.6 | 1.6 | 0.00 | 0.00 | 0.00 | 86 | 1019.0 |
| 20260830225035 | 27 | 147 | 1.6 | 1.6 | 0.00 | 0.00 | 0.00 | 87 | 1018.8 |
| 20260830224533 | 27 | 154 | 1.6 | 3.2 | 0.00 | 0.00 | 0.00 | 86 | 1018.8 |
| 20260830224031 | 27 | 144 | 3.2 | 3.2 | 0.00 | 0.00 | 0.00 | 86 | 1018.9 |
| 20260830223527 | 27 | 154 | 1.6 | 3.2 | 0.00 | 0.00 | 0.00 | 86 | 1018.8 |
| 20260830223022 | 27 | 144 | 1.6 | 1.6 | 0.00 | 0.00 | 0.00 | 86 | 1018.9 |
| 20260830222521 | 28 | 153 | 3.2 | 3.2 | 0.00 | 0.00 | 0.00 | 85 | 1018.6 |
| 20260830222018 | 28 | 133 | 1.6 | 1.6 | 0.00 | 0.00 | 0.00 | 83 | 1018.6 |
| 20260830221514 | 27 | 103 | 0.0 | 0.0 | 0.00 | 0.00 | 0.00 | 85 | 1018.6 |
| 20260830221010 | 28 | 353 | 0.0 | 0.0 | 0.00 | 0.00 | 0.00 | 85 | 1018.6 |
| 20260830220509 | 28 | 349 | 0.0 | 0.0 | 0.00 | 0.00 | 0.00 | 85 | 1018.8 |
| 20260830220008 | 28 | 26 | 0.0 | 0.0 | 0.00 | 0.00 | 0.00 | 84 | 1018.6 |
| 20260830215502 | 28 | 30 | 0.0 | 0.0 | 0.00 | 0.00 | 0.00 | 83 | 1018.7 |
| 20260830214956 | 28 | 139 | 0.0 | 0.0 | 0.00 | 0.00 | 0.00 | 82 | 1018.7 |
| 20260830214451 | 28 | 10 | 0.0 | 0.0 | 0.00 | 0.00 | 0.00 | 83 | 1018.6 |
| 20260830213946 | 28 | 99 | 1.6 | 1.6 | 0.00 | 0.00 | 0.00 | 80 | 1018.8 |
| 20260830213441 | 28 | 125 | 3.2 | 3.2 | 0.00 | 0.00 | 0.00 | 80 | 1018.6 |
| 20260830212937 | 28 | 47 | 0.0 | 0.0 | 0.00 | 0.00 | 0.00 | 83 | 1018.5 |
| 20260830212432 | 28 | 70 | 0.0 | 0.0 | 0.00 | 0.00 | 0.00 | 81 | 1018.6 |
| 20260830211931 | 28 | 118 | 1.6 | 3.2 | 0.00 | 0.00 | 0.00 | 79 | 1018.5 |
| 20260830211426 | 28 | 105 | 0.0 | 1.6 | 0.00 | 0.00 | 0.00 | 79 | 1018.5 |
| 20260830210922 | 28 | 77 | 0.0 | 1.6 | 0.00 | 0.00 | 0.00 | 77 | 1018.4 |
| 20260830210421 | 29 | 59 | 0.0 | 0.0 | 0.00 | 0.00 | 0.00 | 79 | 1018.5 |
| 20260830205919 | 29 | 102 | 3.2 | 3.2 | 0.00 | 0.00 | 0.00 | 77 | 1018.5 |
| 20260830205418 | 28 | 56 | 0.0 | 0.0 | 0.00 | 0.00 | 0.00 | 79 | 1018.6 |
| 20260830204914 | 28 | 82 | 1.6 | 1.6 | 0.00 | 0.00 | 0.00 | 79 | 1018.3 |
| 20260830204413 | 29 | 73 | 0.0 | 0.0 | 0.00 | 0.00 | 0.00 | 78 | 1018.3 |
| 20260830203908 | 29 | 75 | 1.6 | 1.6 | 0.00 | 0.00 | 0.00 | 78 | 1018.5 |
| 20260830203404 | 29 | 110 | 1.6 | 1.6 | 0.00 | 0.00 | 0.00 | 76 | 1018.5 |
| 20260830202903 | 29 | 77 | 3.2 | 3.2 | 0.00 | 0.00 | 0.00 | 76 | 1018.6 |
| 20260830202359 | 28 | 50 | 0.0 | 0.0 | 0.00 | 0.00 | 0.00 | 79 | 1018.6 |
| 20260830201855 | 28 | 129 | 1.6 | 1.6 | 0.00 | 0.00 | 0.00 | 77 | 1018.7 |
| 20260830201354 | 28 | 107 | 1.6 | 3.2 | 0.00 | 0.00 | 0.00 | 77 | 1018.5 |
| 20260830200849 | 29 | 125 | 1.6 | 3.2 | 0.00 | 0.00 | 0.00 | 76 | 1018.8 |
| 20260830200349 | 29 | 110 | 3.2 | 3.2 | 0.00 | 0.00 | 0.00 | 76 | 1018.7 |
| 20260830195844 | 30 | 92 | 1.6 | 1.6 | 0.00 | 0.00 | 0.00 | 74 | 1018.5 |
| 20260830195338 | 30 | 84 | 0.0 | 1.6 | 0.00 | 0.00 | 0.00 | 70 | 1018.5 |
| 20260830194837 | 30 | 56 | 0.0 | 0.0 | 0.00 | 0.00 | 0.00 | 70 | 1018.5 |
| 20260830194330 | 30 | 65 | 0.0 | 1.6 | 0.00 | 0.00 | 0.00 | 67 | 1018.8 |
| 20260830193825 | 30 | 67 | 1.6 | 1.6 | 0.00 | 0.00 | 0.00 | 69 | 1018.9 |
| 20260830193319 | 30 | 116 | 1.6 | 1.6 | 0.00 | 0.00 | 0.00 | 69 | 1019.0 |
| 20260830192816 | 30 | 96 | 1.6 | 1.6 | 0.00 | 0.00 | 0.00 | 70 | 1018.9 |
| 20260830192315 | 30 | 137 | 1.6 | 3.2 | 0.00 | 0.00 | 0.00 | 68 | 1019.1 |
| 20260830191811 | 30 | 113 | 1.6 | 1.6 | 0.00 | 0.00 | 0.00 | 67 | 1019.1 |
| 20260830191310 | 30 | 128 | 3.2 | 3.2 | 0.00 | 0.00 | 0.00 | 68 | 1018.9 |
| 20260830190806 | 30 | 98 | 1.6 | 1.6 | 0.00 | 0.00 | 0.00 | 67 | 1019.4 |
| 20260830190301 | 30 | 98 | 1.6 | 3.2 | 0.00 | 0.00 | 0.00 | 67 | 1019.3 |
| 20260830185800 | 30 | 127 | 1.6 | 1.6 | 0.00 | 0.00 | 0.00 | 73 | 1019.3 |
| 20260830185255 | 30 | 115 | 1.6 | 3.2 | 0.00 | 0.00 | 0.00 | 67 | 1019.2 |
| 20260830184755 | 30 | 43 | 0.0 | 0.0 | 0.00 | 0.00 | 0.00 | 71 | 1019.4 |
| 20260830184254 | 30 | 92 | 1.6 | 1.6 | 0.00 | 0.00 | 0.00 | 73 | 1019.4 |
| 20260830183750 | 29 | 111 | 3.2 | 3.2 | 0.00 | 0.00 | 0.00 | 69 | 1019.8 |
| 20260830183250 | 30 | 93 | 3.2 | 3.2 | 0.00 | 0.00 | 0.00 | 70 | 1019.7 |
| 20260830182745 | 29 | 96 | 1.6 | 1.6 | 0.00 | 0.00 | 0.00 | 72 | 1019.7 |
| 20260830182241 | 30 | 118 | 1.6 | 3.2 | 0.00 | 0.00 | 0.00 | 73 | 1019.6 |
| 20260830181737 | 30 | 116 | 0.0 | 1.6 | 0.00 | 0.00 | 0.00 | 70 | 1019.7 |
| 20260830181232 | 30 | 89 | 1.6 | 3.2 | 0.00 | 0.00 | 0.00 | 71 | 1019.5 |
| 20260830180730 | 30 | 143 | 1.6 | 3.2 | 0.00 | 0.00 | 0.00 | 70 | 1019.6 |
| 20260830180225 | 30 | 124 | 1.6 | 1.6 | 0.00 | 0.00 | 0.00 | 69 | 1019.7 |
| 20260830175720 | 30 | 79 | 1.6 | 1.6 | 0.00 | 0.00 | 0.00 | 71 | 1019.4 |
| 20260830175215 | 29 | 70 | 0.0 | 1.6 | 0.00 | 0.00 | 0.00 | 73 | 1019.6 |
| 20260830174709 | 29 | 126 | 3.2 | 3.2 | 0.00 | 0.00 | 0.00 | 73 | 1019.7 |
| 20260830174206 | 30 | 148 | 1.6 | 1.6 | 0.00 | 0.00 | 0.00 | 72 | 1019.8 |
| 20260830173705 | 29 | 139 | 3.2 | 3.2 | 0.00 | 0.00 | 0.00 | 74 | 1019.8 |
| 20260830173200 | 30 | 105 | 3.2 | 3.2 | 0.00 | 0.00 | 0.00 | 71 | 1019.8 |
| 20260830172657 | 29 | 75 | 0.0 | 1.6 | 0.00 | 0.00 | 0.00 | 74 | 1019.9 |
| 20260830172153 | 29 | 119 | 1.6 | 1.6 | 0.00 | 0.00 | 0.00 | 74 | 1019.9 |
| 20260830171648 | 29 | 132 | 1.6 | 1.6 | 0.00 | 0.00 | 0.00 | 74 | 1019.8 |
| 20260830171143 | 29 | 146 | 1.6 | 1.6 | 0.00 | 0.00 | 0.00 | 71 | 1020.3 |
| 20260830170637 | 29 | 95 | 1.6 | 1.6 | 0.00 | 0.00 | 0.00 | 75 | 1020.1 |
| 20260830170137 | 29 | 116 | 4.8 | 4.8 | 0.00 | 0.00 | 0.00 | 75 | 1020.1 |
| 20260830165631 | 29 | 101 | 0.0 | 0.0 | 0.00 | 0.00 | 0.00 | 75 | 1020.4 |